DECAYED

STARLINK-2333, 47877 (Decayed)

Orbit data source: Space-Track

STARLINK-2333, 47877 was a payload satellite owned by SpaceX/Seattle (US) in LEO that was launched on Sun, 14 Mar 2021 UTC via an FALCON 9 launch vehicle from the Air Force Eastern Test Range (AFETR). Payload-class satellites include a variety of spacecraft equipped with specific instruments for various scientific and technological missions. These include communications satellites like Starlink; space stations such as the ISS; scientific satellites like the Hubble; Earth observation satellites from companies like Planet Labs, Umbra, and HawkEye 360; GPS; miniature CubeSats for education and research; and military/defense satellites.

Not visible in the next 10 days
Identifier
47877, 2021-021T
Orbit
Decayed
Country
Flag of USUS
Related business
Manufacturer
SpaceX/Seattle
Mission
Decayed Commercial Communications
Bus & Motor
STARLINK, Unknown motor
Mass
260 kg wet, ~248 kg dry
Launch date (UTC)
2021-03-14 (5 years ago)
Launch vehicle
FALCON 9
Launch site
Air Force Eastern Test Range (AFETR)
Object type
Payload
Rocket body
Debris
Shape & HBR
Box + 1 Pan, 10.1 m
Radar Cross Section
13.562 m², Large (>1 m²)

Expand to show TLE details & history
Last TLE update: 1 year ago

TLE from 1 year ago
0 STARLINK-2333
1 47877U 21021T   25057.65198130  .18101942  12516-4  68646-3 0  9999
2 47877  53.0309 120.4986 0002264 347.0877 152.4127 16.44216908219583
Epoch: 2025-02-26T15:38Z
TLE epoch observation values (Epoch: 2025-02-26T15:38:51.184Z)
Latitude
31.35205°
Longitude
-118.07906°
Altitude
157.828 km
Speed
7.815 km/s
True Right ascension
18h 13m 29s
True Declination
31° 11' 08"
Sunlit
Object was in daylight at epoch
Visualization orbit readout
Latitude
Unknown
Longitude
Unknown
Altitude
Unknown
Speed
Unknown
Apparent Right ascension
Unknown
Apparent Declination
Unknown
Sunlit
N/A
Visualization observer readout
Local Sidereal Time
21:34:09
Azimuth
Unknown
Elevation
Unknown
Doppler factor
Unknown
Orbital elements
Apogee altitude
156.379 km
Perigee altitude
153.42 km
Semi-major axis
6,533.036 km
Eccentricity
0.00023
Inclination
53.0309°
RAAN
120.4986°
Arg. of periapsis
347.0877°
True anomaly
152.42471°
Mean anomaly
152.4127°
Eccentric anomaly
152.41871°
Mean motion
4.11027 °/min
Orbital period
87.59 mins
BSTAR
0.00068646
Loading maneuver chart data...
Computing Atmospheric mass density...

Documentation

Showing up to 5 results
|